Вернуться в каталог

CZ-6A DEB

АктивенPO
NORAD 55212·DEBRIS·🇨🇳 China

Запущен Nov 11, 2022 с Taiyuan Satellite Launch Center

Loading…

Ближайшие Пролёты (ближайшие 24 часа)

TLE

СвежийSource: Space-Track

Эпоха: Sep 14, 2026, 05:37 UTC

1 55212U 22151WD  26257.23439545  .00098653  00000-0  40697-2 0  9992
2 55212  98.6358 355.6859 0024605 278.9470  80.8979 15.23358717199485

Отслеживайте CZ-6A DEB в реальном времени с AllMySat

Download on the App Store